Regional Weather Roundup
Issued by NWS Charleston, SC

Home | Current Version | Previous Version | Text Only | Print | Product List | Glossary On
Versions: 1 2 3 4 5 6 7 8 9 10 11 12 13 14 15 16 17 18 19 20 21 22 23 24 25 26 27 28 29 30 31 32 33 34 35 36 37 38 39 40 41 42 43 44 45 46 47 48 49 50
000
ASUS42 KCHS 260113
RWRCHS

REGIONAL WEATHER ROUNDUP
NATIONAL WEATHER SERVICE CHARLESTON SC
900 PM EDT WED MAY 25 2016

NOTE: "FAIR" INDICATES FEW OR NO CLOUDS BELOW 12,000 FEET WITH NO
SIGNIFICANT WEATHER AND/OR OBSTRUCTIONS TO VISIBILITY.

NOT ALL STATIONS ARE QUALITY CONTROLLED. USE DATA WITH CAUTION...
ESPECIALLY DEWPOINT OBSERVATIONS.

SCZ027-030-031-034>040-042>050-260200-
...SOUTHEAST SOUTH CAROLINA...

CITY           SKY/WX    TMP DP  RH WIND       PRES   REMARKS
N CHARLESTON   PTCLDY    73  62  68 S8        30.18R
WATERFRONT PRK   N/A     77  68  73 S5        30.17R
MOUNT PLEASANT   N/A     73  66  78 CALM      30.19S
JOHNS ISLAND   FAIR      73  68  83 S6        30.19S
PINOPOLIS        N/A     82  61  47 VRB2      30.11R
MONCKS CORNER  FAIR      72  55  56 S3        30.18R
SUMMERVILLE    FAIR      77  64  65 CALM      30.19R
BEAUFORT MCAS  CLEAR     75  65  70 S5        30.18S
BEAUFORT ARPT  FAIR      73  64  73 S5        30.18S
HILTON HEAD IS CLEAR     73  66  78 S5        30.19S
WALTERBORO     CLEAR     77  63  61 S5        30.18S
ALLENDALE      FAIR      79  63  57 S5        30.16S

...SOUTHERN MIDLANDS AND PEE DEE...

CITY           SKY/WX    TMP DP  RH WIND       PRES   REMARKS
GEORGETOWN     FAIR      72  64  78 S5        30.20R
KINGSTREE      FAIR      73  61  64 CALM      30.17R
ORANGEBURG     CLEAR     75  59  57 CALM      30.16S
BARNWELL       FAIR      79  64  61 CALM      30.17S
AIKEN          FAIR      73  54  49 S5        30.20S
MANNING        FAIR      70  61  73 CALM      30.17R
COLUMBIA       PTCLDY    82  55  39 CALM      30.15R
SUMTER         PTCLDY    77  65  66 SW2       30.14R
FLORENCE       CLEAR     77  61  57 CALM      30.16R
MYRTLE BEACH   CLEAR     75  64  69 S12       30.21R
N MYRTLE BEACH CLEAR     75  69  81 S9        30.19R

$$

GAZ063-065-086>088-099>101-113>116-118-119-134>141-150-260200-
...SOUTHEAST GEORGIA...

CITY           SKY/WX    TMP DP  RH WIND       PRES   REMARKS
SAVANNAH ARPT  PTCLDY    75  62  64 S7        30.19R
HUNTER AAF     CLEAR     76  66  72 SE6       30.16S
FORT STEWART   CLEAR     77  60  57 SE2       30.17R
STATESBORO     CLEAR     78  66  65 SE5       30.18R
SYLVANIA       CLEAR     78  66  67 CALM      30.18S
CLAXTON        FAIR      76  66  71 CALM      30.18R

...CSRA...CENTRAL AND FAR SOUTHEAST GEORGIA...

CITY           SKY/WX    TMP DP  RH WIND       PRES   REMARKS
THOMSON        CLEAR     76  67  72 CALM      30.22R
AUGUSTA-BUSH   CLEAR     73  63  70 CALM      30.15R
AUGUSTA-DANIEL CLEAR     83  56  39 S5        30.17R
SWAINSBORO     FAIR      75  61  60 CALM      30.18R
VIDALIA        CLEAR     77  63  61 CALM      30.17R
EASTMAN        FAIR      76  63  62 CALM      30.19S
HAZLEHURST     FAIR      77  58  51 CALM      30.16R
ALMA           CLEAR     77  61  57 SE6       30.16R
WAYCROSS       CLEAR     79  58  49 SE5       30.17R
JESUP          FAIR      72  57  60 CALM      30.18R
BAXLEY         FAIR      81  59  47 SE3       30.17R
BRUNSWICK      CLEAR     81  68  65 SE5       30.20R
SAINT SIMONS   CLEAR     77  65  66 SE7       30.19R

$$

SCZ027-028-034-036>038-045-046-048>050-GAZ119-141-260200-
...LAKE AND SUPPLEMENTAL COASTAL OBSERVATIONS...

STATION/POSITION TIME  TEMP    WIND        PRES    WAVE   SWELL
                       AIR SEA DIR/SP/G            HT/PER HT/PER/DIR
                 (UTC) (F)     (DEG/KT/KT) (MB)    (FT/S) (FT/S/D)
WINYAH BAY       NOT AVBL
LAKE MURRAY      0000   83        CALM     1020.3S
ACE BASIN NERRS  NOT AVBL
FORT PULASKI     0000      76  160/  4/  6 1022.4R
SAPELO ISLAND    0000   79     160/  6     1022.0S

$$

ANZ835-935-AMZ111-154-330-350-352-354-370-450-454-472-260200-
...C-MAN AND BUOY OBSERVATIONS...

STATION/POSITION TIME  TEMP    WIND        PRES    WAVE   SWELL
                       AIR SEA DIR/SP/G            HT/PER HT/PER/DIR
                 (UTC) (F)     (DEG/KT/KT) (MB)    (FT/S) (FT/S/D)
BUOY 41004       0050   77 78  210/  6/  6 1022.2R   2/ 8   2/ 8
BUOY 41008       0050   78 78  150/  8/ 10 1022.4R   2/ 8   2/ 70/ 8
FOLLY BEACH CMAN 0100   76     190/ 12/ 13 1022.5R
CAPERS NEARSHORE 0008   76 76  190/ 10/ 14 1021.9R
FRIPP NEARSHORE  0008   77 78  200/ 10/ 12 1021.4R


STATION/POSITION TIME  TEMP    WIND        PRES    WAVE   SWELL
                       AIR SEA DIR/SP/G            HT/PER HT/PER/DIR
                 (UTC) (F)     (DEG/KT/KT) (MB)    (FT/S) (FT/S/D)
5E ST. MARYS GA  0021      79                N/A     2/ 9
FRYING PAN BUOY  0100   77 77  170/  8/ 10 1022.3R
BUOY 41025       0050   74 71  220/ 10/ 10 1022.0R   2/ 9   2/110/ 9
CAPE LOOKOUT NC  0100   73     210/  8/ 10 1022.2R
BUOY 41002       0050   75 78   60/  8/ 12 1023.5R   2/ 8   2/110/ 8
BUOY 41010       0020   76 78   50/ 10/ 14 1022.0S
ST AUGUSTINE FL  0100   78 81  120/ 11/ 12 1022.9F


$$



USA.gov is the U.S. government's official web portal to all federal, state and local government web resources and services.